Location: Unspecified
(53.6186°N, 1.3184°W)
Time: 08:25:17
(UTC+01:00)

ISS - Pass Details

Date: 18 September 2017
Orbit: 401 x 407 km, 51.6° (Epoch: 23 September)

Event Time Altitude Azimuth Distance (km) Brightness Sun altitude
Exits shadow 04:55:08 31° 192° (SSW) 752 -2.8 -16.3°
Drops below altitude 10° 04:57:48 10° 140° (SE) 1,468 -0.8 -15.9°
Sets 05:00:00 0° 130° (SE) 2,326 0.4 -15.7°
